S C — FGF7634 — position and weather

sailwx.info

Track history (hours):
 
Tides and Currents Weather Stations Pressure Air Temp Water Temp Dewpoint Dewpoint Depression Visibility Wind Speed Wind Dir Waves Ship Positions

S C

Last reported at 2014-Nov-28 15:33 UTC. Time now 2014-Nov-29 05:10 UTC.
Position N 49°29' E 000°07'.

; draft 1 m.

Type: Pilot. MMSI: 227001820.

Date/timePositionNaut miles runAvg speedWind from/ knotsBaromVisibWave heightAir tempDewpointWater temp
2014-Nov-28 15:33N 49°29' E 000°07'0 0.0
2014-Nov-28 14:33N 49°29' E 000°07'0 0.0
2014-Nov-28 13:33N 49°29' E 000°07'0 0.0
2014-Nov-28 12:33N 49°29' E 000°07'0 0.0
2014-Nov-28 11:33N 49°29' E 000°07'0 0.0
2014-Nov-28 10:33N 49°29' E 000°07'0 0.0
2014-Nov-28 09:33N 49°29' E 000°07'0 0.0
2014-Nov-28 08:33N 49°29' E 000°07'0 0.0
2014-Nov-28 07:33N 49°29' E 000°07'0 0.0
2014-Nov-27 16:27N 49°29' E 000°07'0 0.0
2014-Nov-27 15:33N 49°29' E 000°07'0 0.0
2014-Nov-27 14:33N 49°29' E 000°07'0 0.0
2014-Nov-27 13:33N 49°29' E 000°07'0 0.0
2014-Nov-27 12:33N 49°29' E 000°07'0 0.0
2014-Nov-27 11:33N 49°29' E 000°07'0 0.0
2014-Nov-27 10:33N 49°29' E 000°07'0 0.0
2014-Nov-27 09:33N 49°29' E 000°07'0 0.0
2014-Nov-27 08:33N 49°29' E 000°07'0 0.0
2014-Nov-27 07:33N 49°29' E 000°07'0 0.0
2014-Nov-26 15:33N 49°29' E 000°07'0 0.0
2014-Nov-26 14:34N 49°29' E 000°07'0 0.0
2014-Nov-26 13:33N 49°29' E 000°07'0 0.0
2014-Nov-26 12:33N 49°29' E 000°07'0 0.0
2014-Nov-26 11:33N 49°29' E 000°07'0 0.0
2014-Nov-26 10:33N 49°29' E 000°07'0 0.0
2014-Nov-26 09:33N 49°29' E 000°07'0 0.0
2014-Nov-26 08:33N 49°29' E 000°07'0 0.0
2014-Nov-26 07:33N 49°29' E 000°07'0 0.0
2014-Nov-25 15:33N 49°29' E 000°07'0 0.0
2014-Nov-25 14:34N 49°29' E 000°07'0 0.0
2014-Nov-25 13:34N 49°29' E 000°07'0 0.0
2014-Nov-25 10:12N 49°29' E 000°07'0 0.0
2014-Nov-25 09:33N 49°29' E 000°07'0 0.0
2014-Nov-25 08:33N 49°29' E 000°07'0 0.0
2014-Nov-25 07:33N 49°29' E 000°07'0 0.0
2014-Nov-25 06:33N 49°29' E 000°07'6 6.3
2014-Nov-25 05:33N 49°31' W 000°03'5 5.5
2014-Nov-25 04:33N 49°29' E 000°05'1 0.8
2014-Nov-25 03:34N 49°29' E 000°04'2 1.6
2014-Nov-25 02:33N 49°29' E 000°07'0 0.0
2014-Nov-25 01:33N 49°29' E 000°07'0 0.0
2014-Nov-25 00:33N 49°29' E 000°07'0 0.0
2014-Nov-24 23:33N 49°29' E 000°07'3 3.1
2014-Nov-24 22:33N 49°30' E 000°02'3 2.6
2014-Nov-24 21:33N 49°29' E 000°06'1 0.5
2014-Nov-24 20:33N 49°29' E 000°07'0 0.4
2014-Nov-24 19:34N 49°29' E 000°06'1 0.9
2014-Nov-24 18:33N 49°29' E 000°05'1 1.2
2014-Nov-24 17:33N 49°29' E 000°07'3 2.7
2014-Nov-24 16:33N 49°30' E 000°03'3 2.7
2014-Nov-24 15:33N 49°29' E 000°07'0 0.0
2014-Nov-24 14:33N 49°29' E 000°07'5 4.6
2014-Nov-24 13:33N 49°30' W 000°00'5 4.6
2014-Nov-24 12:33N 49°29' E 000°07'3 3.2
2014-Nov-24 11:34N 49°30' E 000°02'3 3.2
2014-Nov-24 10:33N 49°29' E 000°07'0 0.0
2014-Nov-24 09:33N 49°29' E 000°07'0 0.0
2014-Nov-24 08:33N 49°29' E 000°07'0 0.0
2014-Nov-24 07:33N 49°29' E 000°07'0 0.0
2014-Nov-24 06:33N 49°29' E 000°07'0 0.0
2014-Nov-24 05:33N 49°29' E 000°07'3 3.0
2014-Nov-24 04:33N 49°30' E 000°02'3 3.0
2014-Nov-24 03:33N 49°29' E 000°07'6 6.0
2014-Nov-24 02:34N 49°32' W 000°01'6 6.4
2014-Nov-24 01:34N 49°29' E 000°07'1 0.6
2014-Nov-24 00:34N 49°29' E 000°07'0 0.0
2014-Nov-23 23:34N 49°29' E 000°07'0 0.0
2014-Nov-23 22:34N 49°29' E 000°07'0 0.0
2014-Nov-23 21:33N 49°29' E 000°07'7 6.6
2014-Nov-23 20:34N 49°31' W 000°03'5 5.1
2014-Nov-23 19:34N 49°29' E 000°04'1 1.4
2014-Nov-23 18:33N 49°29' E 000°06'2 1.6
2014-Nov-23 17:33N 49°29' E 000°04'2 1.8
2014-Nov-23 16:33N 49°29' E 000°07'3 3.0
2014-Nov-23 15:33N 49°29' E 000°02'3 3.0
2014-Nov-23 14:33N 49°29' E 000°07'0 0.0
2014-Nov-23 13:33N 49°29' E 000°07'0 0.0
2014-Nov-23 12:33N 49°29' E 000°07'0 0.0
2014-Nov-23 11:33N 49°29' E 000°07'0 0.0
2014-Nov-23 10:33N 49°29' E 000°07'0 0.0
2014-Nov-23 09:34N 49°29' E 000°07'2 2.3
2014-Nov-23 08:33N 49°30' E 000°03'5 4.9
2014-Nov-23 07:34N 49°31' W 000°04'7 7.2
2014-Nov-23 06:33N 49°29' E 000°07'0 0.0
2014-Nov-23 05:33N 49°29' E 000°07'0 0.0
2014-Nov-23 04:33N 49°29' E 000°07'0 0.0
2014-Nov-23 03:33N 49°29' E 000°07'0 0.0
2014-Nov-23 02:33N 49°29' E 000°07'0 0.0
2014-Nov-23 01:33N 49°29' E 000°07'0 0.0
2014-Nov-23 00:33N 49°29' E 000°07'0 0.0
2014-Nov-22 23:33N 49°29' E 000°07'0 0.0
2014-Nov-22 22:33N 49°29' E 000°07'0 0.0
2014-Nov-22 21:33N 49°29' E 000°07'6 5.7
2014-Nov-22 20:33N 49°31' W 000°02'6 5.7
2014-Nov-22 19:33N 49°29' E 000°07'0 0.0
2014-Nov-22 18:33N 49°29' E 000°07'0 0.0
2014-Nov-22 17:33N 49°29' E 000°07'0 0.0
2014-Nov-22 09:05N 49°29' E 000°07'  
Track history (hours):
 
Tides and Currents Weather Stations Pressure Air Temp Water Temp Dewpoint Dewpoint Depression Visibility Wind Speed Wind Dir Waves Ship Positions

S C

Last reported at 2014-Nov-28 15:33 UTC. Time now 2014-Nov-29 05:10 UTC.
Position N 49°29' E 000°07'.

; draft 1 m.

Type: Pilot. MMSI: 227001820.

Date/timePositionNaut miles runAvg speedWind from/ knotsBaromVisibWave heightAir tempDewpointWater temp
2014-Nov-28 15:33N 49°29' E 000°07'0 0.0
2014-Nov-28 14:33N 49°29' E 000°07'0 0.0
2014-Nov-28 13:33N 49°29' E 000°07'0 0.0
2014-Nov-28 12:33N 49°29' E 000°07'0 0.0
2014-Nov-28 11:33N 49°29' E 000°07'0 0.0
2014-Nov-28 10:33N 49°29' E 000°07'0 0.0
2014-Nov-28 09:33N 49°29' E 000°07'0 0.0
2014-Nov-28 08:33N 49°29' E 000°07'0 0.0
2014-Nov-28 07:33N 49°29' E 000°07'0 0.0
2014-Nov-27 16:27N 49°29' E 000°07'0 0.0
2014-Nov-27 15:33N 49°29' E 000°07'0 0.0
2014-Nov-27 14:33N 49°29' E 000°07'0 0.0
2014-Nov-27 13:33N 49°29' E 000°07'0 0.0
2014-Nov-27 12:33N 49°29' E 000°07'0 0.0
2014-Nov-27 11:33N 49°29' E 000°07'0 0.0
2014-Nov-27 10:33N 49°29' E 000°07'0 0.0
2014-Nov-27 09:33N 49°29' E 000°07'0 0.0
2014-Nov-27 08:33N 49°29' E 000°07'0 0.0
2014-Nov-27 07:33N 49°29' E 000°07'0 0.0
2014-Nov-26 15:33N 49°29' E 000°07'0 0.0
2014-Nov-26 14:34N 49°29' E 000°07'0 0.0
2014-Nov-26 13:33N 49°29' E 000°07'0 0.0
2014-Nov-26 12:33N 49°29' E 000°07'0 0.0
2014-Nov-26 11:33N 49°29' E 000°07'0 0.0
2014-Nov-26 10:33N 49°29' E 000°07'0 0.0
2014-Nov-26 09:33N 49°29' E 000°07'0 0.0
2014-Nov-26 08:33N 49°29' E 000°07'0 0.0
2014-Nov-26 07:33N 49°29' E 000°07'0 0.0
2014-Nov-25 15:33N 49°29' E 000°07'0 0.0
2014-Nov-25 14:34N 49°29' E 000°07'0 0.0
2014-Nov-25 13:34N 49°29' E 000°07'0 0.0
2014-Nov-25 10:12N 49°29' E 000°07'0 0.0
2014-Nov-25 09:33N 49°29' E 000°07'0 0.0
2014-Nov-25 08:33N 49°29' E 000°07'0 0.0
2014-Nov-25 07:33N 49°29' E 000°07'0 0.0
2014-Nov-25 06:33N 49°29' E 000°07'6 6.3
2014-Nov-25 05:33N 49°31' W 000°03'5 5.5
2014-Nov-25 04:33N 49°29' E 000°05'1 0.8
2014-Nov-25 03:34N 49°29' E 000°04'2 1.6
2014-Nov-25 02:33N 49°29' E 000°07'0 0.0
2014-Nov-25 01:33N 49°29' E 000°07'0 0.0
2014-Nov-25 00:33N 49°29' E 000°07'0 0.0
2014-Nov-24 23:33N 49°29' E 000°07'3 3.1
2014-Nov-24 22:33N 49°30' E 000°02'3 2.6
2014-Nov-24 21:33N 49°29' E 000°06'1 0.5
2014-Nov-24 20:33N 49°29' E 000°07'0 0.4
2014-Nov-24 19:34N 49°29' E 000°06'1 0.9
2014-Nov-24 18:33N 49°29' E 000°05'1 1.2
2014-Nov-24 17:33N 49°29' E 000°07'3 2.7
2014-Nov-24 16:33N 49°30' E 000°03'3 2.7
2014-Nov-24 15:33N 49°29' E 000°07'0 0.0
2014-Nov-24 14:33N 49°29' E 000°07'5 4.6
2014-Nov-24 13:33N 49°30' W 000°00'5 4.6
2014-Nov-24 12:33N 49°29' E 000°07'3 3.2
2014-Nov-24 11:34N 49°30' E 000°02'3 3.2
2014-Nov-24 10:33N 49°29' E 000°07'0 0.0
2014-Nov-24 09:33N 49°29' E 000°07'0 0.0
2014-Nov-24 08:33N 49°29' E 000°07'0 0.0
2014-Nov-24 07:33N 49°29' E 000°07'0 0.0
2014-Nov-24 06:33N 49°29' E 000°07'0 0.0
2014-Nov-24 05:33N 49°29' E 000°07'3 3.0
2014-Nov-24 04:33N 49°30' E 000°02'3 3.0
2014-Nov-24 03:33N 49°29' E 000°07'6 6.0
2014-Nov-24 02:34N 49°32' W 000°01'6 6.4
2014-Nov-24 01:34N 49°29' E 000°07'1 0.6
2014-Nov-24 00:34N 49°29' E 000°07'0 0.0
2014-Nov-23 23:34N 49°29' E 000°07'0 0.0
2014-Nov-23 22:34N 49°29' E 000°07'0 0.0
2014-Nov-23 21:33N 49°29' E 000°07'7 6.6
2014-Nov-23 20:34N 49°31' W 000°03'5 5.1
2014-Nov-23 19:34N 49°29' E 000°04'1 1.4
2014-Nov-23 18:33N 49°29' E 000°06'2 1.6
2014-Nov-23 17:33N 49°29' E 000°04'2 1.8
2014-Nov-23 16:33N 49°29' E 000°07'3 3.0
2014-Nov-23 15:33N 49°29' E 000°02'3 3.0
2014-Nov-23 14:33N 49°29' E 000°07'0 0.0
2014-Nov-23 13:33N 49°29' E 000°07'0 0.0
2014-Nov-23 12:33N 49°29' E 000°07'0 0.0
2014-Nov-23 11:33N 49°29' E 000°07'0 0.0
2014-Nov-23 10:33N 49°29' E 000°07'0 0.0
2014-Nov-23 09:34N 49°29' E 000°07'2 2.3
2014-Nov-23 08:33N 49°30' E 000°03'5 4.9
2014-Nov-23 07:34N 49°31' W 000°04'7 7.2
2014-Nov-23 06:33N 49°29' E 000°07'0 0.0
2014-Nov-23 05:33N 49°29' E 000°07'0 0.0
2014-Nov-23 04:33N 49°29' E 000°07'0 0.0
2014-Nov-23 03:33N 49°29' E 000°07'0 0.0
2014-Nov-23 02:33N 49°29' E 000°07'0 0.0
2014-Nov-23 01:33N 49°29' E 000°07'0 0.0
2014-Nov-23 00:33N 49°29' E 000°07'0 0.0
2014-Nov-22 23:33N 49°29' E 000°07'0 0.0
2014-Nov-22 22:33N 49°29' E 000°07'0 0.0
2014-Nov-22 21:33N 49°29' E 000°07'6 5.7
2014-Nov-22 20:33N 49°31' W 000°02'6 5.7
2014-Nov-22 19:33N 49°29' E 000°07'0 0.0
2014-Nov-22 18:33N 49°29' E 000°07'0 0.0
2014-Nov-22 17:33N 49°29' E 000°07'0 0.0
2014-Nov-22 09:05N 49°29' E 000°07'  

Dump ship's entire track history